Quillayute, WA
on Wednesday, January 2, 2013

Wednesday
Previous Day Next Day
Daily Summary
 ActualAverageRecord
Temperature
Mean Temperature °F 41°F  
Max Temperature 48°F 46°F 60°F (2012)
Min Temperature 29°F 35°F 20°F (1988)
Degree Days
Heating Degree Days 26 24  
Month to date heating degree days 48  
Since 1 July heating degree days 2526  
Cooling Degree Days 0 0  
Month to date cooling degree days 0  
Year to date cooling degree days 0  
Moisture
Dew Point 34°F   
Average Humidity 85    
Maximum Humidity 96    
Minimum Humidity 66    
Precipitation
Precipitation 0.00 in 0.46 in 2.03 in (1967)
Month to date precipitation 0.92  
Year to date precipitation 0.92  
Wind
Wind Speed 3 mph   
Max Wind Speed 8 mph   
Max Gust Speed 12 mph   
Visibility 6 miles   
Events     

Key: T is trace of precipitation, MM is missing value
Source: NWS Daily Summary
Time(PST)TemperatureDew PointHumidity Pressure Visibility Wind DirectionWind SpeedGust SpeedPrecipitationEvents Conditions
12:53 AM 36.0°F 34.0°F 93% 30.25 in 6.0 miles East 3.5 mph - N/A   Clear
1:53 AM 35.1°F 33.1°F 92% 30.25 in 6.0 miles East 4.6 mph - N/A   Clear
2:53 AM 36.0°F 33.1°F 89% 30.25 in 6.0 miles ENE 4.6 mph - N/A   Clear
3:53 AM 36.0°F 33.1°F 89% 30.24 in 6.0 miles ENE 5.8 mph - N/A   Clear
4:53 AM 36.0°F 33.1°F 89% 30.23 in 6.0 miles East 5.8 mph - N/A   Clear
5:53 AM 36.0°F 33.1°F 89% 30.22 in 6.0 miles ENE 5.8 mph - N/A   Clear
6:53 AM 35.6°F 33.8°F 93% 30.20 in 6.0 miles East 4.6 mph - N/A   Clear
7:53 AM 33.1°F 32.0°F 96% 30.22 in 6.0 miles ENE 4.6 mph - N/A   Clear
8:53 AM 36.0°F 33.1°F 89% 30.22 in 5.0 miles East 3.5 mph - N/A   Clear
9:53 AM 39.0°F 34.0°F 82% 30.23 in 5.0 miles East 4.6 mph - N/A   Haze
10:53 AM 45.0°F 36.0°F 71% 30.23 in 5.0 miles ENE 4.6 mph - N/A   Haze
11:53 AM 46.0°F 37.0°F 71% 30.22 in 5.0 miles East 3.5 mph - N/A   Haze
12:53 PM 46.9°F 36.0°F 66% 30.20 in 5.0 miles East 4.6 mph - N/A   Haze
1:53 PM 48.0°F 37.0°F 66% 30.20 in 5.0 miles Calm Calm - N/A   Haze
2:53 PM 46.9°F 37.0°F 68% 30.20 in 5.0 miles East 5.8 mph - N/A   Haze
3:53 PM 43.0°F 37.0°F 80% 30.19 in 5.0 miles Calm Calm - N/A   Haze
4:53 PM 37.9°F 35.1°F 89% 30.19 in 5.0 miles Calm Calm - N/A   Clear
5:53 PM 37.9°F 34.0°F 86% 30.17 in 6.0 miles ENE 5.8 mph - N/A   Clear
6:53 PM 37.0°F 33.1°F 86% 30.17 in 6.0 miles NE 4.6 mph - N/A   Clear
7:53 PM 37.0°F 32.0°F 82% 30.16 in 6.0 miles ENE 3.5 mph - N/A   Haze
8:53 PM 35.1°F 33.1°F 92% 30.16 in 6.0 miles Calm Calm - N/A   Clear
9:53 PM 30.9°F 30.0°F 96% 30.17 in 6.0 miles Calm Calm - N/A   Clear
10:53 PM 32.0°F 30.9°F 96% 30.16 in 5.0 miles Calm Calm - N/A   Clear
11:53 PM 30.0°F 28.0°F 92% 30.15 in 3.0 miles Calm Calm - N/A   Clear
Moon Phase
Jan. 02 Jan. 04 Jan. 11 Jan. 18 Jan. 26
Sunrise:08:07 AM (PST) Moon Rise:10:43 PM (PST)1/2
Sunset:04:37 PM (PST) Moon Set:10:27 AM (PST)1/2

Copyright © 2014 The Weather Underground, Inc.